Regional Weather Roundup
Issued by NWS

Home | Current Version | Previous Version | Graphics & Text | Print | Product List | Glossary On
Versions: 1 2 3 4 5 6 7 8 9 10 11 12 13 14 15 16 17 18 19 20 21 22 23 24 25 26 27 28 29 30 31 32 33 34 35 36 37 38 39 40 41 42 43 44 45 46 47 48 49 50
083
ASUS44 KJAN 191103
RWRMS

MISSISSIPPI HOURLY WEATHER ROUNDUP
NATIONAL WEATHER SERVICE JACKSON MS
600 AM CDT SAT APR 19 2014

NOTE: "FAIR: INDICATES FEW OR NO CLOUDS BELOW 12,000 FEET WITH NO
SIGNIFICANT WEATHER AND/OR OBSTRUCTIONS TO VISIBILITY.

MSZ001>002-007>008-010>013-018>021-025>028-034>036-191200-
NORTHWEST MISSISSIPPI

CITY           SKY/WX    TMP DP  RH WIND       PRES   REMARKS
CLARKSDALE       N/A     50  50 100 CALM      30.18S
CLEVELAND      FAIR      51  51 100 N3        30.17R
GREENWOOD      CLEAR     49  48  97 CALM      30.16S FOG
GREENVILLE     CLEAR     51  50  96 CALM      30.17R FOG
GRENADA        FAIR      46  46 100 CALM      30.17S
OLIVE BRANCH   CLEAR     50  50 100 CALM      30.18S
OXFORD         FAIR      45  45 100 CALM      30.19S
TUNICA         SUNNY     50  50 100 CALM      30.18S FOG
$$

MSZ003>006-009-014>017-022>024-029>033-037>039-191200-
NORTHEAST MISSISSIPPI

CITY           SKY/WX    TMP DP  RH WIND       PRES   REMARKS
BELMONT        FAIR      50  48  95 N5        30.16S
COLUMBUS AFB   FOG       46  46 100 W2        30.16R VSB 1/4
CORINTH        FAIR      48  46  93 NW3       30.17S FOG
GOLDN TRIANGLE CLEAR     48  45  87 W5        30.18R FOG
STARKVILLE     FAIR      48  46  93 CALM      30.16R FOG
TUPELO         CLEAR     49  47  93 CALM      30.16S
$$

MSZ040-058-191200-
CENTRAL MISSISSIPPI

CITY           SKY/WX    TMP DP  RH WIND       PRES   REMARKS
JACKSON INTL   CLEAR     47  46  97 CALM      30.15R
JACKSON HAWKNS CLEAR     52  49  89 CALM      30.15R
MERIDIAN KEY   CLEAR     47  46  97 CALM      30.13S
MERIDIAN NAS   CLEAR     50  48  93 NW3       30.14R
RAYMOND        HAZE      48  43  81 CALM      30.15S VSB 1/4
VICKSBURG      CLEAR     56  54  93 W5        30.17R
$$

MSZ059>079-191200-
SOUTH MISSISSIPPI

CITY           SKY/WX    TMP DP  RH WIND       PRES   REMARKS
BROOKHAVEN     FAIR      48  48 100 CALM      30.16R FOG
COLUMBIA       FAIR      50  50 100 MISG      30.12R FOG
HATTIESBURG    CLEAR     52  49  89 NE3       30.10F
MCCOMB         CLEAR     54  50  86 NE5       30.14R
NATCHEZ        CLEAR     52  48  87 CALM      30.16S
PINE BELT      CLEAR     50  46  87 N7        30.11S
$$

MSZ080>082-191200-
COASTAL MISSISSIPPI

CITY           SKY/WX    TMP DP  RH WIND       PRES   REMARKS
BILOXI         CLEAR     55  52  88 N10       30.08S
PASCAGOULA     CLEAR     54  52  93 N9        30.08R
GULFPORT       CLEAR     57  51  80 N8        30.08R
$$



USA.gov is the U.S. government's official web portal to all federal, state and local government web resources and services.